TimeMST,TemperatureF,Dew PointF,Humidity,Sea Level PressureIn,VisibilityMPH,Wind Direction,Wind SpeedMPH,Gust SpeedMPH,PrecipitationIn,Events,Conditions,WindDirDegrees,DateUTC
12:15 AM,3.2,1.4,92,29.83,10.0,North,9.2,-,N/A,,Clear,360,2013-12-20 07:15:00
12:35 AM,3.2,1.4,92,29.83,10.0,North,8.1,-,N/A,,Clear,360,2013-12-20 07:35:00
12:55 AM,3.2,1.4,92,29.83,10.0,Calm,Calm,-,N/A,,Clear,0,2013-12-20 07:55:00
1:15 AM,3.2,1.4,92,29.83,10.0,East,3.5,-,N/A,,Clear,100,2013-12-20 08:15:00
1:35 AM,1.4,-0.4,92,29.82,10.0,ENE,5.8,-,N/A,,Clear,70,2013-12-20 08:35:00
1:55 AM,1.4,-0.4,92,29.82,10.0,East,5.8,-,N/A,,Clear,90,2013-12-20 08:55:00
2:15 AM,1.4,-0.4,92,29.82,10.0,ENE,5.8,-,N/A,,Clear,70,2013-12-20 09:15:00
2:35 AM,-0.4,-2.2,92,29.83,10.0,Calm,Calm,-,N/A,,Clear,0,2013-12-20 09:35:00
2:55 AM,1.4,1.4,100,29.83,10.0,NNE,3.5,-,N/A,,Clear,20,2013-12-20 09:55:00
3:15 AM,-0.4,-0.4,100,29.83,10.0,NNE,4.6,-,N/A,,Clear,30,2013-12-20 10:15:00
3:36 AM,1.4,-0.4,92,29.84,10.0,North,4.6,-,N/A,,Clear,360,2013-12-20 10:36:00
3:55 AM,1.4,-0.4,92,29.83,10.0,North,3.5,-,N/A,,Clear,10,2013-12-20 10:55:00
4:15 AM,3.2,1.4,92,29.83,10.0,NNE,4.6,-,N/A,,Clear,20,2013-12-20 11:15:00
4:35 AM,3.2,1.4,92,29.81,10.0,NNE,3.5,-,N/A,,Clear,30,2013-12-20 11:35:00
4:55 AM,3.2,1.4,92,29.81,10.0,NNE,3.5,-,N/A,,Clear,30,2013-12-20 11:55:00
5:15 AM,1.4,1.4,100,29.81,7.0,NNW,5.8,-,N/A,,Partly Cloudy,330,2013-12-20 12:15:00
5:35 AM,1.4,-0.4,92,29.81,10.0,Calm,Calm,-,N/A,,Partly Cloudy,0,2013-12-20 12:35:00
5:55 AM,1.4,1.4,100,29.81,10.0,NE,3.5,-,N/A,,Clear,40,2013-12-20 12:55:00
6:15 AM,1.4,-0.4,92,29.82,7.0,NNE,3.5,-,N/A,,Clear,20,2013-12-20 13:15:00
6:35 AM,-0.4,-2.2,92,29.82,10.0,North,6.9,-,N/A,,Clear,360,2013-12-20 13:35:00
6:51 AM,-0.4,-2.2,92,29.82,10.0,North,10.4,-,N/A,,Scattered Clouds,350,2013-12-20 13:51:00
7:55 AM,1.4,-0.4,92,29.83,10.0,NNW,6.9,-,N/A,,Mostly Cloudy,340,2013-12-20 14:55:00
8:51 AM,3.2,1.4,92,29.83,10.0,NNW,3.5,-,N/A,,Haze,330,2013-12-20 15:51:00
9:57 AM,6.8,3.2,85,29.84,10.0,North,3.5,-,N/A,,Haze,360,2013-12-20 16:57:00
10:57 AM,12.2,6.8,79,29.83,10.0,Calm,Calm,-,N/A,,Scattered Clouds,0,2013-12-20 17:57:00
11:57 AM,14.0,6.8,73,29.80,10.0,Calm,Calm,-,N/A,,Scattered Clouds,0,2013-12-20 18:57:00
12:51 PM,15.8,10.4,79,29.76,10.0,South,3.5,-,N/A,,Mostly Cloudy,190,2013-12-20 19:51:00
1:51 PM,19.4,12.2,74,29.75,10.0,SSE,4.6,-,N/A,,Mostly Cloudy,160,2013-12-20 20:51:00
2:56 PM,21.2,12.2,68,29.74,10.0,South,13.8,-,N/A,,Mostly Cloudy,170,2013-12-20 21:56:00
3:53 PM,19.4,12.2,74,29.74,10.0,South,15.0,-,N/A,,Mostly Cloudy,180,2013-12-20 22:53:00
4:51 PM,19.4,12.2,74,29.73,10.0,South,12.7,-,N/A,,Mostly Cloudy,170,2013-12-20 23:51:00
5:53 PM,15.8,10.4,79,29.71,10.0,SSE,6.9,-,N/A,,Scattered Clouds,160,2013-12-21 00:53:00
6:53 PM,15.8,10.4,79,29.70,10.0,South,5.8,-,N/A,,Scattered Clouds,190,2013-12-21 01:53:00
7:13 PM,17.6,12.2,79,29.69,10.0,South,17.3,23.0,N/A,Snow,Light Snow,180,2013-12-21 02:13:00
7:52 PM,17.6,14.0,86,29.69,3.0,South,16.1,19.6,N/A,Snow,Light Snow,170,2013-12-21 02:52:00
8:55 PM,17.6,14.0,86,29.68,2.5,South,10.4,-,N/A,,Overcast,180,2013-12-21 03:55:00
9:15 PM,15.8,15.8,100,29.67,4.0,SSW,6.9,-,N/A,,Overcast,200,2013-12-21 04:15:00
9:35 PM,15.8,15.8,100,29.68,4.0,SSW,6.9,-,N/A,,Overcast,210,2013-12-21 04:35:00
9:55 PM,15.8,15.8,100,29.68,2.5,SW,5.8,-,N/A,,Overcast,220,2013-12-21 04:55:00
10:15 PM,15.8,15.8,100,29.67,3.0,WSW,6.9,-,N/A,,Overcast,240,2013-12-21 05:15:00
10:35 PM,15.8,15.8,100,29.66,2.5,SW,6.9,-,N/A,,Overcast,220,2013-12-21 05:35:00
10:55 PM,15.8,15.8,100,29.66,3.0,SW,5.8,-,N/A,,Overcast,230,2013-12-21 05:55:00
11:35 PM,15.8,15.8,100,29.65,2.5,SW,5.8,-,N/A,,Overcast,220,2013-12-21 06:35:00
11:55 PM,15.8,15.8,100,29.65,2.0,SSW,6.9,-,N/A,,Overcast,210,2013-12-21 06:55:00